Home > Weather > Fort Liard > Past weeks

Flag for Canada Past Weather in Fort Liard, Northwest Territories, Canada — Yesterday and Last 2 Weeks

Now
56 °F

Cool.


Feels Like: 56 °F
Forecast: 53 / 67 °F
Wind: 1 mph from Northeast

Location: Lindberg Landing

Current Time: Jul 23, 2016 at 11:06:10 PM

Latest Report: Jul 23, 2016 at 10:00 PM


Visibility: N/A

Pressure: 29.66 "Hg

Humidity: 87%

Dew Point: 53 °F

Location of Fort LiardLocation

Past Weather in Fort Liard — Graph

°F

Fort Liard Temperature Yesterday

Maximum temperature yesterday: 70 °F (at 7:00 PM)
Minimum temperature yesterday: 48 °F (at 6:00 AM)
Average temperature yesterday: 59 °F

High & Low Weather Summary for the Past Weeks

 TemperatureHumidityPressure
High87 °F (Jul 17, 5:00 PM)100% (Jul 9, 1:00 AM)30.19 "Hg (Jul 9, 1:00 AM)
Low41 °F (Jul 21, 6:00 AM)21% (Jul 14, 6:00 PM)29.62 "Hg (Jul 18, 9:00 PM)
Average64 °F72%29.89 "Hg
* Reported Jul 8 9:00 PM — Jul 23 9:00 PM, Fort Liard, Weather by CustomWeather, © 2016

Note: Actual official high and low records may vary slightly from our data, if they occured in-between our weather recording intervals... More about our weather records

Advertising

Fort Liard Weather History for the Previous 24 Hours

Scroll right to see more
 ConditionsComfort  
Time TempWeatherWind HumidityBarometerVisibility
9:00 PM
Sat, Jul 23
54 °FCool.1 mph99%29.67 "HgN/A
8:00 PM60 °FCool.1 mph79%29.69 "HgN/A
7:00 PM62 °FCool.3 mph71%29.71 "HgN/A
6:00 PM61 °FCool.3 mph68%29.73 "HgN/A
5:00 PM61 °FCool.2 mph66%29.75 "HgN/A
4:00 PM60 °FCool.3 mph70%29.77 "HgN/A
3:00 PM61 °FCool.2 mph67%29.78 "HgN/A
2:00 PM59 °FCool.3 mph72%29.78 "HgN/A
1:00 PM56 °FCool.2 mph78%29.80 "HgN/A
12:00 PM56 °FCool.2 mph80%29.79 "HgN/A
11:00 AM55 °FCool.2 mph82%29.79 "HgN/A
10:00 AM54 °FCool.1 mph89%29.78 "HgN/A
9:00 AM53 °FCool.1 mph90%29.76 "HgN/A
8:00 AM53 °FCool.3 mph89%29.75 "HgN/A
7:00 AM54 °FCool.5 mph86%29.72 "HgN/A
6:00 AM55 °FCool.3 mph84%29.71 "HgN/A
5:00 AM55 °FCool.3 mph85%29.69 "HgN/A
4:00 AM55 °FCool.2 mph88%29.68 "HgN/A
3:00 AM56 °FCool.3 mph86%29.67 "HgN/A
2:00 AM57 °FCool.2 mph86%29.66 "HgN/A
1:00 AM57 °FCool.No wind94%29.64 "HgN/A
12:00 AM58 °FCool.No wind93%29.64 "HgN/A
11:00 PM
Fri, Jul 22
59 °FCool.No wind92%29.63 "HgN/A
Weather by CustomWeather, © 2016

See weather overviewHow to use our weather pages